Coleman, TX

10:33 PM CDT on March 27, 2017 (GMT -0500)
Coleman Municipal

Weather History for KCOM - October, 2012

Change the Weather History Date:

Saturday, October 27, 2012

  Actual Average (KABI) Record (KABI)
Temperature  
Mean Temperature 46 °F -  
Max Temperature 57 °F 70 °F 90 °F (1988)
Min Temperature 35 °F 49 °F 28 °F (1997)
Degree Days  
Heating Degree Days 19    
Moisture  
Dew Point 25 °F    
Average Humidity 48    
Maximum Humidity 70    
Minimum Humidity 24    
Precipitation  
Precipitation 0.00 in - - ()
Sea Level Pressure  
Sea Level Pressure 30.27 in    
Wind  
Wind Speed 8 mph (North)    
Max Wind Speed 14 mph    
Max Gust Speed 20 mph    
Visibility 10 miles    
Events      
Averages and records for this station are not official NWS values.
T = Trace of Precipitation, MM = Missing Value Source: NWS Daily Summary

Daily Weather History Graph

Daily Weather History Graph

Search for Another Location

Airport or City:

Trip Planner

Search our weather history database for the weather conditions in past years. The results will help you decide how hot, cold, wet, or windy it might be!

Date:

Astronomy

Oct. 27, 2012 Rise Set
Actual Time 7:50 AM CDT 6:51 PM CDT
Civil Twilight 7:25 AM CDT 7:16 PM CDT
Nautical Twilight 6:56 AM CDT 7:45 PM CDT
Astronomical Twilight 6:28 AM CDT 8:14 PM CDT
Moon 5:35 PM CDT (10/27) 5:52 AM CDT (10/27)
Length of Visible Light 11h 51m
Length of Day
11h 01m
Waxing Gibbous, 96% of the Moon is Illuminated
Oct 27
Waxing Gibbous
Oct 29
Full
Nov 6
Last Quarter
Nov 13
New
Nov 20
First Quarter

Hourly Weather History & Observations

Time (CDT) Temp. Windchill Dew Point Humidity Pressure Visibility Wind Dir Wind Speed Gust Speed Precip Events Conditions
12:15 AM 44.1 °F 39.0 °F 28.4 °F 54% 30.34 in 10.0 mi NNE 9.2 mph - N/A   Overcast
12:35 AM 44.2 °F 38.8 °F 27.9 °F 53% 30.35 in 10.0 mi NNE 10.4 mph - N/A   Overcast
12:55 AM 44.8 °F 39.4 °F 26.4 °F 49% 30.34 in 10.0 mi NNE 10.4 mph 19.6 mph N/A   Overcast
1:15 AM 44.4 °F 38.2 °F 25.9 °F 48% 30.34 in 10.0 mi NNE 12.7 mph - N/A   Overcast
1:35 AM 43.9 °F 37.2 °F 25.7 °F 49% 30.33 in 10.0 mi NNE 13.8 mph - N/A   Overcast
1:55 AM 43.5 °F 37.1 °F 25.7 °F 50% 30.32 in 10.0 mi NNE 12.7 mph - N/A   Overcast
2:15 AM 42.8 °F 36.6 °F 26.1 °F 52% 30.32 in 10.0 mi NNE 11.5 mph - N/A   Overcast
2:35 AM 42.1 °F 36.6 °F 26.6 °F 54% 30.32 in 10.0 mi NNE 9.2 mph - N/A   Overcast
2:55 AM 41.4 °F 36.2 °F 27.1 °F 57% 30.32 in 10.0 mi NNE 8.1 mph - N/A   Overcast
3:15 AM 40.3 °F 35.5 °F 27.5 °F 60% 30.32 in 10.0 mi North 6.9 mph - N/A   Mostly Cloudy
3:35 AM 39.0 °F 34.8 °F 27.5 °F 63% 30.32 in 10.0 mi North 5.8 mph - N/A   Scattered Clouds
3:55 AM 38.5 °F 32.7 °F 27.1 °F 64% 30.31 in 10.0 mi North 8.1 mph - N/A   Clear
4:15 AM 38.3 °F 31.9 °F 27.0 °F 64% 30.31 in 10.0 mi North 9.2 mph - N/A   Clear
4:35 AM 37.9 °F 32.1 °F 26.8 °F 64% 30.31 in 10.0 mi North 8.1 mph - N/A   Clear
4:55 AM 37.6 °F 31.6 °F 27.0 °F 66% 30.31 in 10.0 mi North 8.1 mph - N/A   Clear
5:15 AM 36.7 °F 31.2 °F 27.0 °F 68% 30.31 in 10.0 mi North 6.9 mph - N/A   Clear
5:35 AM 36.7 °F 29.9 °F 27.0 °F 68% 30.31 in 10.0 mi North 9.2 mph - N/A   Clear
5:55 AM 36.5 °F 28.7 °F 27.0 °F 68% 30.30 in 10.0 mi North 11.5 mph - N/A   Clear
6:15 AM 36.7 °F 28.9 °F 26.8 °F 67% 30.30 in 10.0 mi North 11.5 mph - N/A   Clear
6:35 AM 36.7 °F 29.4 °F 26.6 °F 67% 30.32 in 10.0 mi North 10.4 mph - N/A   Clear
6:55 AM 36.5 °F 29.7 °F 26.6 °F 67% 30.32 in 10.0 mi North 9.2 mph - N/A   Clear
7:15 AM 36.0 °F 30.3 °F 26.6 °F 69% 30.32 in 10.0 mi North 6.9 mph - N/A   Clear
7:55 AM 35.4 °F 30.5 °F 26.6 °F 70% 30.34 in 10.0 mi NNW 5.8 mph - N/A   Clear
8:15 AM 36.0 °F 31.1 °F 26.6 °F 69% 30.34 in 10.0 mi NNW 5.8 mph - N/A   Clear
8:35 AM 36.9 °F 33.1 °F 27.0 °F 67% 30.35 in 10.0 mi NNW 4.6 mph - N/A   Scattered Clouds
8:55 AM 37.8 °F 33.3 °F 27.1 °F 66% 30.36 in 10.0 mi North 5.8 mph - N/A   Clear
9:15 AM 38.1 °F 31.7 °F 27.5 °F 66% 30.35 in 10.0 mi North 9.2 mph - N/A   Scattered Clouds
9:35 AM 39.7 °F 33.7 °F 28.0 °F 63% 30.35 in 10.0 mi NNE 9.2 mph - N/A   Mostly Cloudy
9:55 AM 41.2 °F 35.5 °F 27.7 °F 59% 30.36 in 10.0 mi NNE 9.2 mph - N/A   Overcast
10:15 AM 42.6 °F 37.8 °F 27.5 °F 55% 30.35 in 10.0 mi NE 8.1 mph - N/A   Overcast
10:35 AM 44.2 °F 39.2 °F 27.7 °F 52% 30.35 in 10.0 mi NNE 9.2 mph 18.4 mph N/A   Mostly Cloudy
10:55 AM 45.9 °F 42.3 °F 27.5 °F 49% 30.35 in 10.0 mi NNE 6.9 mph - N/A   Scattered Clouds
11:15 AM 46.9 °F - 27.1 °F 46% 30.34 in 10.0 mi NNE 11.5 mph - N/A   Clear
11:35 AM 48.0 °F - 25.3 °F 41% 30.33 in 10.0 mi NNE 9.2 mph - N/A   Scattered Clouds
12:15 PM 50.2 °F - 25.0 °F 37% 30.32 in 10.0 mi NNE 3.5 mph - N/A   Scattered Clouds
12:35 PM 51.3 °F - 24.4 °F 35% 30.31 in 10.0 mi North 5.8 mph 9.2 mph N/A   Clear
12:55 PM 52.3 °F - 23.5 °F 33% 30.29 in 10.0 mi NNE 8.1 mph - N/A   Clear
1:15 PM 53.4 °F - 24.1 °F 32% 30.27 in 10.0 mi North 6.9 mph - N/A   Clear
2:15 PM 55.2 °F - 21.9 °F 27% 30.22 in 10.0 mi North 6.9 mph - N/A   Clear
2:35 PM 55.8 °F - 22.5 °F 28% 30.21 in 10.0 mi North 5.8 mph - N/A   Clear
2:55 PM 56.5 °F - 22.8 °F 27% 30.20 in 10.0 mi North 8.1 mph - N/A   Clear
3:15 PM 57.0 °F - 22.5 °F 26% 30.19 in 10.0 mi North 6.9 mph - N/A   Clear
3:35 PM 57.6 °F - 21.0 °F 24% 30.18 in 10.0 mi North 4.6 mph - N/A   Clear
3:55 PM 57.7 °F - 21.2 °F 24% 30.18 in 10.0 mi NNW 3.5 mph - N/A   Clear
4:15 PM 57.7 °F - 21.0 °F 24% 30.18 in 10.0 mi Calm Calm - N/A   Clear
4:35 PM 57.7 °F - 21.6 °F 25% 30.18 in 10.0 mi NNE 5.8 mph - N/A   Clear
4:55 PM 57.7 °F - 21.6 °F 25% 30.18 in 10.0 mi Calm Calm - N/A   Scattered Clouds
5:15 PM 57.6 °F - 21.0 °F 24% 30.17 in 10.0 mi North 3.5 mph - N/A   Scattered Clouds
5:35 PM 57.4 °F - 21.4 °F 25% 30.17 in 10.0 mi Calm Calm - N/A   Clear
5:55 PM 57.2 °F - 21.4 °F 25% 30.18 in 10.0 mi NNE 4.6 mph - N/A   Clear
6:15 PM 56.5 °F - 21.4 °F 26% 30.18 in 10.0 mi NNE 5.8 mph - N/A   Clear
6:35 PM 55.6 °F - 21.6 °F 27% 30.18 in 10.0 mi NNE 4.6 mph - N/A   Clear
6:55 PM 53.6 °F - 23.9 °F 32% 30.18 in 10.0 mi North 3.5 mph - N/A   Clear
7:15 PM 51.8 °F - 24.8 °F 35% 30.19 in 10.0 mi North 4.6 mph - N/A   Clear
7:35 PM 50.5 °F - 23.9 °F 35% 30.19 in 10.0 mi North 5.8 mph - N/A   Clear
7:55 PM 49.3 °F - 24.1 °F 37% 30.20 in 10.0 mi North 5.8 mph - N/A   Clear
8:15 PM 47.5 °F - 25.3 °F 42% 30.20 in 10.0 mi North 4.6 mph - N/A   Clear
8:35 PM 46.6 °F - 25.9 °F 44% 30.20 in 10.0 mi NE 4.6 mph - N/A   Clear
8:55 PM 44.8 °F 43.3 °F 26.1 °F 48% 30.20 in 10.0 mi NE 3.5 mph - N/A   Clear
9:15 PM 44.4 °F 42.0 °F 25.9 °F 48% 30.21 in 10.0 mi NE 4.6 mph - N/A   Clear
9:55 PM 43.2 °F 39.7 °F 26.4 °F 52% 30.22 in 10.0 mi NNE 5.8 mph - N/A   Clear
10:15 PM 42.6 °F - 25.9 °F 52% 30.22 in 10.0 mi Calm Calm - N/A   Clear
10:35 PM 42.4 °F - 25.7 °F 52% 30.23 in 10.0 mi Calm Calm - N/A   Clear
10:55 PM 42.3 °F - 26.2 °F 53% 30.24 in 10.0 mi Calm Calm - N/A   Clear
11:15 PM 42.3 °F - 26.2 °F 53% 30.24 in 10.0 mi Calm Calm - N/A   Clear
11:35 PM 41.2 °F - 27.3 °F 58% 30.23 in 10.0 mi Calm Calm - N/A   Clear
11:55 PM 41.4 °F - 27.3 °F 57% 30.24 in 10.0 mi Calm Calm - N/A   Clear